South St. Paul, MN

11:53 PM CDT on October 16, 2017 (GMT -0500)
South Saint Paul Municipal-Fleming

Weather History for KSGS - February, 2014

Change the Weather History Date:

Saturday, February 1, 2014

  Actual Average (KSTP) Record (KSTP)
Temperature  
Mean Temperature 12 °F -  
Max Temperature 24 °F 26 °F 37 °F (2016)
Min Temperature 1 °F 11 °F -9 °F (2013)
Degree Days  
Heating Degree Days 52    
Moisture  
Dew Point 2 °F    
Average Humidity 66    
Maximum Humidity 74    
Minimum Humidity 58    
Precipitation  
Precipitation 0.00 in - - ()
Sea Level Pressure  
Sea Level Pressure 30.00 in    
Wind  
Wind Speed 3 mph (West)    
Max Wind Speed 15 mph    
Max Gust Speed 22 mph    
Visibility 10 miles    
Events      
Averages and records for this station are not official NWS values.
T = Trace of Precipitation, MM = Missing Value Source: NWS Daily Summary

Daily Weather History Graph

Daily Weather History Graph

Search for Another Location

Airport or City:

Trip Planner

Search our weather history database for the weather conditions in past years. The results will help you decide how hot, cold, wet, or windy it might be!

Date:

Astronomy

Feb. 01, 2014 Rise Set
Actual Time 7:31 AM CST 5:20 PM CST
Civil Twilight 7:00 AM CST 5:51 PM CST
Nautical Twilight 6:25 AM CST 6:26 PM CST
Astronomical Twilight 5:50 AM CST 7:01 PM CST
Moon 8:14 AM CST (2/1) 8:05 PM CST (2/1)
Length of Visible Light 10h 51m
Length of Day
9h 49m
Waxing Crescent, 5% of the Moon is Illuminated
Feb 1
Waxing Crescent
Feb 6
First Quarter
Feb 14
Full
Feb 22
Last Quarter
Mar 1
New

Hourly Weather History & Observations

Time (CST) Temp. Windchill Dew Point Humidity Pressure Visibility Wind Dir Wind Speed Gust Speed Precip Events Conditions
12:12 AM 1.4 °F - -5.3 °F 74% 30.02 in 10.0 mi Calm Calm - N/A   Clear
12:32 AM 1.4 °F - -5.3 °F 74% 30.02 in 10.0 mi Calm Calm - N/A   Clear
12:52 AM 1.2 °F - -5.8 °F 72% 30.02 in 10.0 mi Calm Calm - N/A   Clear
1:12 AM 1.2 °F - -5.3 °F 74% 30.01 in 10.0 mi Calm Calm - N/A   Clear
1:32 AM 1.4 °F - -5.1 °F 74% 29.99 in 10.0 mi Calm Calm - N/A   Clear
1:52 AM 1.4 °F - -5.1 °F 74% 30.00 in 10.0 mi Calm Calm - N/A   Clear
2:12 AM 2.1 °F - -4.9 °F 72% 30.00 in 10.0 mi Calm Calm - N/A   Clear
2:32 AM 2.3 °F - -4.4 °F 74% 29.99 in 10.0 mi Calm Calm - N/A   Clear
2:52 AM 3.0 °F - -4.0 °F 73% 30.00 in 10.0 mi Calm Calm - N/A   Clear
3:12 AM 3.2 °F - -4.0 °F 72% 29.98 in 10.0 mi Calm Calm - N/A   Clear
3:32 AM 3.4 °F -5.9 °F -3.5 °F 73% 29.98 in 10.0 mi South 4.6 mph - N/A   Clear
3:52 AM 3.9 °F -3.4 °F -3.3 °F 72% 29.97 in 10.0 mi South 3.5 mph - N/A   Clear
4:12 AM 4.1 °F -3.2 °F -3.3 °F 71% 29.97 in 10.0 mi South 3.5 mph - N/A   Clear
4:32 AM 4.6 °F -4.5 °F -2.7 °F 72% 29.96 in 10.0 mi SSE 4.6 mph - N/A   Clear
4:52 AM 4.6 °F - -2.7 °F 72% 29.95 in 10.0 mi Calm Calm - N/A   Clear
5:12 AM 5.0 °F -2.1 °F -2.2 °F 72% 29.94 in 10.0 mi SSE 3.5 mph - N/A   Mostly Cloudy
5:32 AM 5.7 °F -3.2 °F -1.8 °F 71% 29.93 in 10.0 mi South 4.6 mph - N/A   Overcast
5:52 AM 5.7 °F - -1.8 °F 71% 29.93 in 10.0 mi Calm Calm - N/A   Overcast
6:12 AM 5.7 °F - -1.7 °F 72% 29.93 in 10.0 mi Calm Calm - N/A   Scattered Clouds
6:32 AM 5.7 °F - -1.7 °F 72% 29.94 in 10.0 mi Calm Calm - N/A   Scattered Clouds
6:52 AM 5.9 °F -1.1 °F -1.3 °F 72% 29.93 in 10.0 mi SSE 3.5 mph - N/A   Mostly Cloudy
7:12 AM 6.4 °F -0.5 °F -0.9 °F 72% 29.94 in 10.0 mi SSE 3.5 mph - N/A   Overcast
7:32 AM 7.3 °F 0.5 °F -0.0 °F 72% 29.93 in 10.0 mi South 3.5 mph - N/A   Overcast
7:52 AM 8.1 °F 1.4 °F 0.5 °F 71% 29.93 in 10.0 mi SE 3.5 mph - N/A   Overcast
8:12 AM 8.4 °F 1.8 °F 0.5 °F 70% 29.93 in 10.0 mi SSE 3.5 mph - N/A   Overcast
8:32 AM 8.6 °F - 1.0 °F 71% 29.94 in 10.0 mi Calm Calm - N/A   Overcast
8:52 AM 9.3 °F - 1.8 °F 71% 29.94 in 10.0 mi Calm Calm - N/A   Overcast
9:12 AM 10.0 °F - 2.1 °F 70% 29.95 in 7.0 mi Calm Calm - N/A   Overcast
9:32 AM 10.8 °F - 2.8 °F 70% 29.96 in 7.0 mi Calm Calm - N/A   Overcast
9:52 AM 11.3 °F 5.1 °F 3.2 °F 70% 29.95 in 10.0 mi SSE 3.5 mph - N/A   Overcast
10:12 AM 12.2 °F - 4.1 °F 70% 29.96 in 10.0 mi Calm Calm - N/A   Mostly Cloudy
10:32 AM 13.1 °F 7.1 °F 4.6 °F 69% 29.96 in 10.0 mi SE 3.5 mph - N/A   Scattered Clouds
10:52 AM 14.7 °F - 5.4 °F 66% 29.96 in 10.0 mi Calm Calm - N/A   Clear
11:12 AM 16.3 °F - 6.1 °F 64% 29.96 in 10.0 mi Calm Calm - N/A   Clear
11:32 AM 17.8 °F - 6.8 °F 62% 29.96 in 10.0 mi Calm Calm - N/A   Clear
11:52 AM 20.1 °F 13.6 °F 9.1 °F 62% 29.96 in 10.0 mi WSW 4.6 mph - N/A   Clear
12:12 PM 22.8 °F 15.5 °F 12.7 °F 65% 29.95 in 10.0 mi West 5.8 mph - N/A   Clear
12:32 PM 23.0 °F 17.0 °F 12.7 °F 65% 29.96 in 10.0 mi West 4.6 mph - N/A   Clear
12:52 PM 23.5 °F 16.4 °F 12.7 °F 63% 29.95 in 10.0 mi WSW 5.8 mph - N/A   Clear
1:12 PM 24.4 °F 14.9 °F 13.1 °F 62% 29.95 in 10.0 mi WNW 9.2 mph - N/A   Clear
1:32 PM 24.6 °F 14.4 °F 12.9 °F 61% 29.95 in 10.0 mi WNW 10.4 mph 17.3 mph N/A   Clear
1:52 PM 24.3 °F 13.9 °F 12.7 °F 62% 29.95 in 10.0 mi NW 10.4 mph - N/A   Clear
2:12 PM 23.9 °F 13.5 °F 12.2 °F 61% 29.96 in 10.0 mi WNW 10.4 mph - N/A   Clear
2:32 PM 23.9 °F 12.3 °F 11.8 °F 60% 29.97 in 10.0 mi WNW 12.7 mph - N/A   Clear
2:52 PM 23.7 °F 14.0 °F 11.7 °F 60% 29.98 in 10.0 mi WNW 9.2 mph - N/A   Clear
3:12 PM 22.5 °F 11.7 °F 10.8 °F 61% 29.99 in 10.0 mi NW 10.4 mph 16.1 mph N/A   Scattered Clouds
3:32 PM 22.5 °F 9.4 °F 10.4 °F 60% 29.99 in 10.0 mi WNW 15.0 mph 18.4 mph N/A   Clear
3:52 PM 22.1 °F 10.0 °F 10.0 °F 60% 30.00 in 10.0 mi NW 12.7 mph 21.9 mph N/A   Clear
4:12 PM 21.2 °F 9.5 °F 9.5 °F 61% 30.02 in 10.0 mi NW 11.5 mph 17.3 mph N/A   Scattered Clouds
4:32 PM 21.2 °F 11.7 °F 8.8 °F 59% 30.02 in 10.0 mi NW 8.1 mph 17.3 mph N/A   Mostly Cloudy
4:52 PM 20.8 °F 10.4 °F 8.6 °F 59% 30.03 in 10.0 mi NW 9.2 mph - N/A   Scattered Clouds
5:12 PM 20.3 °F 12.5 °F 8.2 °F 60% 30.04 in 10.0 mi WNW 5.8 mph - N/A   Scattered Clouds
5:32 PM 20.3 °F 10.6 °F 7.5 °F 58% 30.05 in 10.0 mi WNW 8.1 mph - N/A   Mostly Cloudy
5:52 PM 19.4 °F 10.4 °F 6.8 °F 58% 30.05 in 10.0 mi NW 6.9 mph - N/A   Scattered Clouds
6:12 PM 18.9 °F 6.5 °F 6.8 °F 59% 30.07 in 10.0 mi West 11.5 mph - N/A   Clear
6:32 PM 17.2 °F 4.5 °F 6.1 °F 62% 30.08 in 10.0 mi WNW 11.5 mph - N/A   Clear
6:52 PM 16.0 °F 2.9 °F 4.8 °F 61% 30.09 in 10.0 mi WNW 11.5 mph 20.7 mph N/A   Clear
9:39 PM 9.3 °F -1.7 °F -1.8 °F 61% 30.17 in 10.0 mi NW 6.9 mph - N/A   Clear
9:46 PM 9.0 °F -2.2 °F -2.2 °F 61% 30.17 in 10.0 mi NW 6.9 mph - N/A   Clear
10:12 PM 7.9 °F -4.6 °F -2.7 °F 62% 30.17 in 10.0 mi NW 8.1 mph - N/A   Clear
10:32 PM 7.5 °F -5.0 °F -3.3 °F 61% 30.18 in 10.0 mi NW 8.1 mph - N/A   Clear
10:52 PM 6.8 °F -3.5 °F -4.2 °F 61% 30.20 in 10.0 mi NW 5.8 mph - N/A   Clear
11:12 PM 6.4 °F -9.0 °F -4.5 °F 61% 30.20 in 10.0 mi NW 11.5 mph - N/A   Clear
11:32 PM 5.0 °F -2.1 °F -5.4 °F 62% 30.20 in 10.0 mi NW 3.5 mph - N/A   Clear
11:52 PM 4.8 °F -8.3 °F -5.6 °F 62% 30.22 in 10.0 mi NW 8.1 mph - N/A   Clear